| time (UTC) | temp F | wind direction | speed MPH | gust MPH | rain 1hr in | rain 24hr in | rain mn in | humidity % | barometer mb |
| 20260508170017 | 61 | 98 | 2.0 | 4.0 | 0.00 | 0.00 | 0.00 | 57 | 1013.5 |
| 20260508165504 | 61 | 81 | 2.0 | 4.0 | 0.00 | 0.00 | 0.00 | 59 | 1013.5 |
| 20260508165009 | 61 | 114 | 2.0 | 5.0 | 0.00 | 0.00 | 0.00 | 60 | 1013.5 |
| 20260508164524 | 61 | 98 | 1.0 | 5.0 | 0.00 | 0.00 | 0.00 | 59 | 1013.5 |
| 20260508164008 | 62 | 141 | 2.0 | 5.0 | 0.00 | 0.00 | 0.00 | 58 | 1013.4 |
| 20260508163508 | 62 | 89 | 3.0 | 5.0 | 0.00 | 0.00 | 0.00 | 59 | 1013.4 |
| 20260508163018 | 62 | 163 | 3.0 | 6.0 | 0.00 | 0.00 | 0.00 | 60 | 1013.4 |
| 20260508162510 | 62 | 100 | 3.0 | 6.0 | 0.00 | 0.00 | 0.00 | 59 | 1013.2 |
| 20260508162010 | 62 | 136 | 2.0 | 6.0 | 0.00 | 0.00 | 0.00 | 59 | 1013.3 |
| 20260508161536 | 63 | 126 | 2.0 | 8.0 | 0.00 | 0.00 | 0.00 | 58 | 1013.4 |
| 20260508161005 | 63 | 110 | 3.0 | 8.0 | 0.00 | 0.00 | 0.00 | 55 | 1013.2 |
| 20260508160506 | 64 | 98 | 3.0 | 7.0 | 0.00 | 0.00 | 0.00 | 53 | 1013.3 |
| 20260508160013 | 66 | 102 | 1.0 | 4.0 | 0.00 | 0.00 | 0.00 | 50 | 1013.3 |
| 20260508155505 | 67 | 8 | 2.0 | 4.0 | 0.00 | 0.00 | 0.00 | 51 | 1013.3 |
| 20260508155006 | 67 | 279 | 1.0 | 6.0 | 0.00 | 0.00 | 0.00 | 49 | 1013.4 |
| 20260508154517 | 67 | 124 | 1.0 | 6.0 | 0.00 | 0.00 | 0.00 | 49 | 1013.4 |
| 20260508154008 | 68 | 109 | 1.0 | 4.0 | 0.00 | 0.00 | 0.00 | 44 | 1013.2 |
| 20260508153509 | 68 | 285 | 1.0 | 4.0 | 0.00 | 0.00 | 0.00 | 45 | 1013.2 |
| 20260508153032 | 68 | 58 | 1.0 | 5.0 | 0.00 | 0.00 | 0.00 | 45 | 1013.2 |
| 20260508152511 | 68 | 282 | 2.0 | 5.0 | 0.00 | 0.00 | 0.00 | 46 | 1013.2 |
| 20260508152011 | 69 | 259 | 2.0 | 5.0 | 0.00 | 0.00 | 0.00 | 47 | 1013.1 |
| 20260508151536 | 69 | 277 | 1.0 | 4.0 | 0.00 | 0.00 | 0.00 | 44 | 1013.2 |
| 20260508151017 | 68 | 261 | 1.0 | 3.0 | 0.00 | 0.00 | 0.00 | 51 | 1013.2 |
| 20260508150509 | 67 | 127 | 1.0 | 3.0 | 0.00 | 0.00 | 0.00 | 47 | 1013.2 |
| 20260508150026 | 66 | 299 | 0.0 | 5.0 | 0.00 | 0.00 | 0.00 | 49 | 1013.1 |
| 20260508145507 | 66 | 168 | 2.0 | 5.0 | 0.00 | 0.00 | 0.00 | 49 | 1013.1 |
| 20260508145009 | 66 | 285 | 3.0 | 5.0 | 0.00 | 0.00 | 0.00 | 46 | 1013.1 |
| 20260508144514 | 68 | 109 | 1.0 | 3.0 | 0.00 | 0.00 | 0.00 | 47 | 1013.1 |
| 20260508144005 | 67 | 107 | 1.0 | 5.0 | 0.00 | 0.00 | 0.00 | 48 | 1013.1 |
| 20260508143505 | 66 | 159 | 1.0 | 5.0 | 0.00 | 0.00 | 0.00 | 48 | 1013.1 |
| 20260508143018 | 67 | 281 | 3.0 | 5.0 | 0.00 | 0.00 | 0.00 | 47 | 1013.1 |
| 20260508142512 | 67 | 74 | 2.0 | 5.0 | 0.00 | 0.00 | 0.00 | 50 | 1013.1 |
| 20260508142009 | 67 | 305 | 1.0 | 4.0 | 0.00 | 0.00 | 0.00 | 50 | 1013.2 |
| 20260508141522 | 67 | 53 | 1.0 | 4.0 | 0.00 | 0.00 | 0.00 | 50 | 1013.2 |
| 20260508141012 | 68 | 139 | 1.0 | 5.0 | 0.00 | 0.00 | 0.00 | 49 | 1013.4 |
| 20260508140510 | 67 | 120 | 1.0 | 7.0 | 0.00 | 0.00 | 0.00 | 48 | 1013.4 |
| 20260508140026 | 67 | 267 | 2.0 | 10.0 | 0.00 | 0.00 | 0.00 | 51 | 1013.4 |
| 20260508135503 | 68 | 285 | 3.0 | 10.0 | 0.00 | 0.00 | 0.00 | 50 | 1013.4 |
| 20260508135006 | 67 | 247 | 2.0 | 7.0 | 0.00 | 0.00 | 0.00 | 53 | 1013.4 |
| 20260508134511 | 67 | 232 | 2.0 | 5.0 | 0.00 | 0.00 | 0.00 | 48 | 1013.4 |
| 20260508134005 | 67 | 274 | 2.0 | 7.0 | 0.00 | 0.00 | 0.00 | 47 | 1013.4 |
| 20260508133505 | 67 | 333 | 1.0 | 7.0 | 0.00 | 0.00 | 0.00 | 50 | 1013.4 |
| 20260508133014 | 67 | 122 | 1.0 | 5.0 | 0.00 | 0.00 | 0.00 | 49 | 1013.4 |
| 20260508132505 | 67 | 304 | 2.0 | 5.0 | 0.00 | 0.00 | 0.00 | 48 | 1013.4 |
| 20260508132008 | 67 | 120 | 1.0 | 4.0 | 0.00 | 0.00 | 0.00 | 52 | 1013.4 |
| 20260508131504 | 66 | 285 | 1.0 | 3.0 | 0.00 | 0.00 | 0.00 | 51 | 1013.4 |
| 20260508131003 | 66 | 286 | 1.0 | 5.0 | 0.00 | 0.00 | 0.00 | 47 | 1013.4 |
| 20260508130503 | 66 | 281 | 2.0 | 5.0 | 0.00 | 0.00 | 0.00 | 49 | 1013.5 |
| 20260508130003 | 66 | 233 | 1.0 | 5.0 | 0.00 | 0.00 | 0.00 | 52 | 1013.4 |
| 20260508125506 | 66 | 282 | 2.0 | 5.0 | 0.00 | 0.00 | 0.00 | 45 | 1013.4 |
| 20260508125003 | 67 | 257 | 1.0 | 4.0 | 0.00 | 0.00 | 0.00 | 48 | 1013.4 |
| 20260508124506 | 67 | 139 | 0.0 | 6.0 | 0.00 | 0.00 | 0.00 | 49 | 1013.3 |
| 20260508124005 | 66 | 114 | 1.0 | 7.0 | 0.00 | 0.00 | 0.00 | 45 | 1013.3 |
| 20260508123506 | 67 | 110 | 2.0 | 7.0 | 0.00 | 0.01 | 0.00 | 49 | 1013.3 |
| 20260508123013 | 68 | 119 | 2.0 | 6.0 | 0.00 | 0.01 | 0.00 | 48 | 1013.3 |
| 20260508122508 | 67 | 160 | 1.0 | 4.0 | 0.00 | 0.01 | 0.00 | 52 | 1013.4 |
| 20260508122010 | 67 | 63 | 2.0 | 6.0 | 0.00 | 0.01 | 0.00 | 44 | 1013.5 |
| 20260508121520 | 67 | 115 | 2.0 | 6.0 | 0.00 | 0.01 | 0.00 | 45 | 1013.5 |
| 20260508121009 | 67 | 103 | 1.0 | 3.0 | 0.00 | 0.01 | 0.00 | 47 | 1013.5 |
| 20260508120505 | 66 | 128 | 0.0 | 6.0 | 0.00 | 0.01 | 0.00 | 49 | 1013.5 |
| 20260508120023 | 66 | 139 | 2.0 | 6.0 | 0.00 | 0.01 | 0.00 | 44 | 1013.6 |
| 20260508115503 | 67 | 307 | 1.0 | 3.0 | 0.00 | 0.01 | 0.00 | 50 | 1013.6 |
| 20260508115002 | 66 | 102 | 0.0 | 2.0 | 0.00 | 0.01 | 0.00 | 48 | 1013.7 |
| 20260508114504 | 66 | 291 | 0.0 | 4.0 | 0.00 | 0.01 | 0.00 | 46 | 1013.7 |
| 20260508114003 | 66 | 112 | 2.0 | 4.0 | 0.00 | 0.01 | 0.00 | 51 | 1013.7 |
| 20260508113505 | 66 | 41 | 1.0 | 5.0 | 0.00 | 0.01 | 0.00 | 45 | 1013.8 |
| 20260508113012 | 66 | 87 | 0.0 | 5.0 | 0.00 | 0.01 | 0.00 | 47 | 1013.8 |
| 20260508112505 | 66 | 142 | 1.0 | 5.0 | 0.00 | 0.01 | 0.00 | 51 | 1013.8 |
| 20260508112008 | 66 | 82 | 0.0 | 5.0 | 0.00 | 0.01 | 0.00 | 52 | 1013.7 |
| 20260508111513 | 65 | 82 | 1.0 | 4.0 | 0.00 | 0.01 | 0.00 | 54 | 1013.9 |
| 20260508111008 | 65 | 115 | 1.0 | 4.0 | 0.00 | 0.01 | 0.00 | 54 | 1013.9 |
| 20260508110507 | 65 | 146 | 1.0 | 4.0 | 0.00 | 0.01 | 0.00 | 56 | 1014.0 |
| 20260508110022 | 65 | 138 | 1.0 | 4.0 | 0.00 | 0.02 | 0.00 | 54 | 1013.9 |
| 20260508105508 | 65 | 113 | 1.0 | 4.0 | 0.00 | 0.05 | 0.00 | 56 | 1014.0 |
| 20260508105011 | 63 | 165 | 1.0 | 3.0 | 0.00 | 0.10 | 0.00 | 55 | 1014.0 |
| 20260508104523 | 63 | 260 | 1.0 | 3.0 | 0.00 | 0.12 | 0.00 | 55 | 1014.0 |
| 20260508104006 | 63 | 150 | 1.0 | 3.0 | 0.00 | 0.12 | 0.00 | 58 | 1014.0 |
| 20260508103503 | 63 | 115 | 1.0 | 3.0 | 0.00 | 0.12 | 0.00 | 58 | 1014.1 |
| 20260508103005 | 62 | 101 | 1.0 | 2.0 | 0.00 | 0.12 | 0.00 | 57 | 1014.0 |
| 20260508102504 | 63 | 335 | 0.0 | 3.0 | 0.00 | 0.12 | 0.00 | 55 | 1014.0 |
| 20260508102004 | 64 | 124 | 1.0 | 3.0 | 0.00 | 0.12 | 0.00 | 54 | 1014.0 |
| 20260508101514 | 63 | 320 | 0.0 | 2.0 | 0.00 | 0.12 | 0.00 | 59 | 1014.0 |
| 20260508101010 | 62 | 71 | 0.0 | 2.0 | 0.00 | 0.12 | 0.00 | 61 | 1014.0 |
| 20260508100507 | 61 | 78 | 1.0 | 5.0 | 0.00 | 0.12 | 0.00 | 61 | 1014.1 |
| 20260508100017 | 62 | 252 | 1.0 | 5.0 | 0.00 | 0.12 | 0.00 | 58 | 1014.2 |
| 20260508095507 | 62 | 281 | 1.0 | 4.0 | 0.00 | 0.12 | 0.00 | 56 | 1014.2 |
| 20260508095013 | 62 | 290 | 2.0 | 4.0 | 0.00 | 0.12 | 0.00 | 57 | 1014.2 |
| 20260508094521 | 63 | 145 | 1.0 | 3.0 | 0.00 | 0.12 | 0.00 | 58 | 1014.3 |
| 20260508094006 | 63 | 278 | 0.0 | 3.0 | 0.00 | 0.12 | 0.00 | 60 | 1014.2 |
| 20260508093507 | 62 | 129 | 1.0 | 3.0 | 0.00 | 0.12 | 0.00 | 59 | 1014.2 |
| 20260508093023 | 62 | 202 | 0.0 | 3.0 | 0.00 | 0.12 | 0.00 | 62 | 1014.2 |
| 20260508092509 | 61 | 48 | 1.0 | 2.0 | 0.00 | 0.12 | 0.00 | 61 | 1014.2 |
| 20260508092006 | 62 | 134 | 0.0 | 2.0 | 0.00 | 0.12 | 0.00 | 63 | 1014.3 |
| 20260508091517 | 62 | 276 | 0.0 | 3.0 | 0.00 | 0.12 | 0.00 | 59 | 1014.2 |
| 20260508091003 | 62 | 156 | 1.0 | 4.0 | 0.00 | 0.12 | 0.00 | 64 | 1014.2 |
| 20260508090506 | 61 | 189 | 1.0 | 4.0 | 0.00 | 0.12 | 0.00 | 61 | 1014.3 |
| 20260508090015 | 61 | 139 | 1.0 | 2.0 | 0.00 | 0.12 | 0.00 | 62 | 1014.3 |
| 20260508085505 | 62 | 264 | 0.0 | 3.0 | 0.00 | 0.12 | 0.00 | 62 | 1014.3 |
| 20260508085010 | 62 | 100 | 1.0 | 3.0 | 0.00 | 0.12 | 0.00 | 63 | 1014.3 |
| 20260508084517 | 62 | 93 | 1.0 | 2.0 | 0.00 | 0.12 | 0.00 | 65 | 1014.3 |
| 20260508084007 | 61 | 128 | 1.0 | 2.0 | 0.00 | 0.12 | 0.00 | 64 | 1014.3 |
| 20260508083509 | 61 | 285 | 1.0 | 2.0 | 0.00 | 0.12 | 0.00 | 62 | 1014.3 |
| 20260508083031 | 61 | 335 | 0.0 | 5.0 | 0.00 | 0.12 | 0.00 | 67 | 1014.3 |
| 20260508082510 | 61 | 155 | 2.0 | 5.0 | 0.00 | 0.12 | 0.00 | 67 | 1014.3 |
| 20260508082012 | 60 | 349 | 1.0 | 4.0 | 0.00 | 0.12 | 0.00 | 66 | 1014.3 |
| 20260508081524 | 60 | 107 | 1.0 | 4.0 | 0.00 | 0.12 | 0.00 | 74 | 1014.3 |
| 20260508081009 | 60 | 90 | 0.0 | 4.0 | 0.00 | 0.12 | 0.00 | 75 | 1014.2 |
| 20260508080514 | 59 | 108 | 0.0 | 2.0 | 0.00 | 0.12 | 0.00 | 71 | 1014.2 |
| 20260508080008 | 59 | 84 | 0.0 | 2.0 | 0.00 | 0.12 | 0.00 | 75 | 1014.1 |
| 20260508075508 | 59 | 82 | 1.0 | 2.0 | 0.00 | 0.12 | 0.00 | 79 | 1014.1 |
| 20260508075007 | 59 | 98 | 1.0 | 2.0 | 0.00 | 0.12 | 0.00 | 77 | 1014.1 |
| 20260508074513 | 59 | 122 | 0.0 | 2.0 | 0.00 | 0.12 | 0.00 | 78 | 1014.1 |
| 20260508074009 | 59 | 102 | 0.0 | 2.0 | 0.00 | 0.12 | 0.00 | 77 | 1014.1 |
| 20260508073506 | 59 | 70 | 0.0 | 2.0 | 0.00 | 0.12 | 0.00 | 74 | 1014.1 |
| 20260508073021 | 59 | 117 | 0.0 | 2.0 | 0.00 | 0.12 | 0.00 | 78 | 1014.0 |
| 20260508072513 | 59 | 94 | 0.0 | 2.0 | 0.00 | 0.12 | 0.00 | 75 | 1014.0 |
| 20260508072011 | 59 | 94 | 1.0 | 5.0 | 0.00 | 0.12 | 0.00 | 75 | 1014.0 |
| 20260508071525 | 59 | 143 | 1.0 | 5.0 | 0.00 | 0.12 | 0.00 | 70 | 1014.0 |
| 20260508071009 | 59 | 106 | 1.0 | 3.0 | 0.00 | 0.12 | 0.00 | 75 | 1013.9 |
| 20260508070509 | 59 | 108 | 1.0 | 3.0 | 0.00 | 0.12 | 0.00 | 70 | 1013.9 |
| 20260508070027 | 59 | 150 | 1.0 | 3.0 | 0.00 | 0.12 | 0.00 | 71 | 1013.9 |
| 20260508065510 | 58 | 143 | 1.0 | 3.0 | 0.00 | 0.12 | 0.00 | 73 | 1013.9 |
| 20260508065007 | 58 | 106 | 0.0 | 3.0 | 0.00 | 0.12 | 0.00 | 75 | 1013.9 |
| 20260508064532 | 58 | 119 | 1.0 | 3.0 | 0.00 | 0.12 | 0.00 | 78 | 1013.9 |
| 20260508064003 | 58 | 139 | 0.0 | 2.0 | 0.00 | 0.12 | 0.00 | 72 | 1013.8 |
| 20260508063505 | 57 | 141 | 0.0 | 2.0 | 0.00 | 0.12 | 0.00 | 74 | 1013.7 |
| 20260508063016 | 57 | 129 | 0.0 | 2.0 | 0.00 | 0.12 | 0.00 | 74 | 1013.7 |
| 20260508062514 | 56 | 124 | 0.0 | 2.0 | 0.00 | 0.12 | 0.00 | 75 | 1013.8 |
| 20260508062006 | 55 | 135 | 0.0 | 2.0 | 0.00 | 0.12 | 0.00 | 77 | 1013.8 |
| 20260508061522 | 55 | 122 | 0.0 | 1.0 | 0.00 | 0.12 | 0.00 | 76 | 1013.7 |
| 20260508061006 | 54 | 117 | 0.0 | 1.0 | 0.00 | 0.12 | 0.00 | 78 | 1013.7 |
| 20260508060506 | 53 | 115 | 0.0 | 1.0 | 0.00 | 0.12 | 0.00 | 77 | 1013.6 |
| 20260508060027 | 53 | 109 | 0.0 | 2.0 | 0.00 | 0.12 | 0.00 | 77 | 1013.6 |
| 20260508055506 | 53 | 134 | 1.0 | 2.0 | 0.00 | 0.12 | 0.00 | 78 | 1013.6 |
| 20260508055006 | 53 | 121 | 0.0 | 2.0 | 0.00 | 0.12 | 0.00 | 77 | 1013.6 |
| 20260508054528 | 53 | 113 | 0.0 | 2.0 | 0.00 | 0.12 | 0.00 | 78 | 1013.5 |
| 20260508054010 | 52 | 126 | 0.0 | 1.0 | 0.00 | 0.12 | 0.00 | 78 | 1013.5 |
| 20260508053513 | 52 | 125 | 0.0 | 1.0 | 0.00 | 0.12 | 0.00 | 80 | 1013.5 |
| 20260508053043 | 51 | 121 | 0.0 | 1.0 | 0.00 | 0.12 | 0.00 | 80 | 1013.4 |
| 20260508052510 | 51 | 138 | 0.0 | 1.0 | 0.00 | 0.12 | 0.00 | 80 | 1013.4 |
| 20260508052013 | 51 | 101 | 0.0 | 1.0 | 0.00 | 0.12 | 0.00 | 81 | 1013.4 |
| 20260508051521 | 51 | 105 | 0.0 | 1.0 | 0.00 | 0.12 | 0.00 | 80 | 1013.4 |
| 20260508051008 | 50 | 109 | 0.0 | 1.0 | 0.00 | 0.12 | 0.00 | 81 | 1013.4 |
| 20260508050507 | 49 | 125 | 0.0 | 1.0 | 0.00 | 0.12 | 0.00 | 83 | 1013.4 |
| 20260508050021 | 49 | 130 | 0.0 | 1.0 | 0.00 | 0.12 | 0.00 | 84 | 1013.4 |
| 20260508045502 | 48 | 108 | 0.0 | 1.0 | 0.00 | 0.12 | 0.00 | 84 | 1013.3 |
| 20260508045003 | 48 | 113 | 0.0 | 1.0 | 0.00 | 0.12 | 0.00 | 85 | 1013.3 |
| 20260508044507 | 48 | 121 | 0.0 | 1.0 | 0.00 | 0.12 | 0.00 | 85 | 1013.3 |
| 20260508044004 | 48 | 125 | 0.0 | 1.0 | 0.00 | 0.12 | 0.00 | 85 | 1013.3 |
| 20260508043503 | 48 | 128 | 0.0 | 1.0 | 0.00 | 0.12 | 0.00 | 85 | 1013.3 |
| 20260508043012 | 48 | 121 | 0.0 | 1.0 | 0.00 | 0.12 | 0.00 | 85 | 1013.2 |
| 20260508042504 | 48 | 131 | 0.0 | 1.0 | 0.00 | 0.12 | 0.00 | 86 | 1013.3 |
| 20260508042011 | 47 | 144 | 0.0 | 1.0 | 0.00 | 0.12 | 0.00 | 87 | 1013.4 |
| 20260508041519 | 47 | 127 | 0.0 | 1.0 | 0.00 | 0.12 | 0.00 | 87 | 1013.3 |
| 20260508041006 | 47 | 124 | 0.0 | 1.0 | 0.00 | 0.12 | 0.00 | 87 | 1013.3 |
| 20260508040508 | 47 | 124 | 0.0 | 1.0 | 0.00 | 0.12 | 0.00 | 87 | 1013.3 |
| 20260508040019 | 47 | 124 | 0.0 | 1.0 | 0.00 | 0.12 | 0.00 | 87 | 1013.3 |
| 20260508035507 | 47 | 122 | 0.0 | 1.0 | 0.00 | 0.12 | 0.00 | 87 | 1013.4 |
| 20260508035007 | 47 | 134 | 0.0 | 0.0 | 0.00 | 0.12 | 0.00 | 87 | 1013.4 |
| 20260508034506 | 47 | 134 | 0.0 | 0.0 | 0.00 | 0.12 | 0.00 | 87 | 1013.5 |
| 20260508034003 | 47 | 121 | 0.0 | 0.0 | 0.00 | 0.12 | 0.00 | 87 | 1013.5 |
| 20260508033503 | 47 | 106 | 0.0 | 1.0 | 0.00 | 0.12 | 0.00 | 87 | 1013.4 |
| 20260508033017 | 47 | 106 | 0.0 | 1.0 | 0.00 | 0.12 | 0.00 | 88 | 1013.4 |
| 20260508032504 | 46 | 106 | 0.0 | 1.0 | 0.00 | 0.12 | 0.00 | 87 | 1013.4 |
| 20260508032006 | 46 | 107 | 0.0 | 0.0 | 0.00 | 0.12 | 0.00 | 86 | 1013.4 |
| 20260508031516 | 47 | 107 | 0.0 | 0.0 | 0.00 | 0.12 | 0.00 | 86 | 1013.4 |
| 20260508031007 | 47 | 107 | 0.0 | 0.0 | 0.00 | 0.12 | 0.00 | 86 | 1013.4 |
| 20260508030503 | 47 | 107 | 0.0 | 0.0 | 0.00 | 0.12 | 0.00 | 85 | 1013.4 |
| 20260508030018 | 47 | 107 | 0.0 | 0.0 | 0.00 | 0.12 | 0.00 | 85 | 1013.4 |
| 20260508025505 | 48 | 106 | 0.0 | 1.0 | 0.00 | 0.12 | 0.00 | 84 | 1013.4 |
| 20260508025007 | 48 | 106 | 0.0 | 1.0 | 0.00 | 0.12 | 0.00 | 83 | 1013.4 |
| 20260508024525 | 49 | 106 | 0.0 | 1.0 | 0.00 | 0.12 | 0.00 | 83 | 1013.5 |
| 20260508024006 | 49 | 110 | 0.0 | 1.0 | 0.00 | 0.12 | 0.00 | 83 | 1013.5 |
| 20260508023506 | 49 | 110 | 0.0 | 1.0 | 0.00 | 0.12 | 0.00 | 83 | 1013.5 |
| 20260508023031 | 49 | 110 | 0.0 | 1.0 | 0.00 | 0.12 | 0.00 | 83 | 1013.4 |
| 20260508022513 | 49 | 110 | 0.0 | 2.0 | 0.00 | 0.12 | 0.00 | 83 | 1013.4 |
| 20260508022004 | 49 | 112 | 0.0 | 2.0 | 0.00 | 0.12 | 0.00 | 82 | 1013.5 |
| 20260508021508 | 49 | 123 | 0.0 | 1.0 | 0.00 | 0.12 | 0.00 | 83 | 1013.5 |
| 20260508021008 | 49 | 130 | 0.0 | 1.0 | 0.00 | 0.12 | 0.00 | 83 | 1013.5 |
| 20260508020507 | 49 | 137 | 0.0 | 1.0 | 0.00 | 0.12 | 0.00 | 83 | 1013.5 |
| 20260508020013 | 49 | 136 | 0.0 | 1.0 | 0.00 | 0.12 | 0.00 | 83 | 1013.5 |
| 20260508015507 | 49 | 119 | 0.0 | 1.0 | 0.00 | 0.12 | 0.00 | 83 | 1013.6 |
| 20260508015007 | 48 | 122 | 0.0 | 1.0 | 0.00 | 0.12 | 0.00 | 83 | 1013.6 |
| 20260508014517 | 48 | 120 | 0.0 | 1.0 | 0.00 | 0.12 | 0.00 | 83 | 1013.6 |
| 20260508014009 | 48 | 132 | 0.0 | 1.0 | 0.00 | 0.12 | 0.00 | 83 | 1013.6 |
| 20260508013507 | 48 | 143 | 0.0 | 1.0 | 0.00 | 0.12 | 0.00 | 83 | 1013.6 |
| 20260508013025 | 48 | 147 | 0.0 | 1.0 | 0.00 | 0.12 | 0.00 | 83 | 1013.6 |
| 20260508012509 | 48 | 147 | 0.0 | 1.0 | 0.00 | 0.12 | 0.00 | 83 | 1013.6 |
| 20260508012009 | 48 | 127 | 0.0 | 1.0 | 0.00 | 0.12 | 0.00 | 84 | 1013.6 |
| 20260508011530 | 48 | 137 | 0.0 | 1.0 | 0.00 | 0.12 | 0.00 | 84 | 1013.6 |
| 20260508011008 | 48 | 138 | 0.0 | 1.0 | 0.00 | 0.12 | 0.00 | 84 | 1013.7 |
| 20260508010510 | 48 | 138 | 0.0 | 0.0 | 0.00 | 0.12 | 0.00 | 84 | 1013.7 |
| 20260508010018 | 48 | 138 | 0.0 | 0.0 | 0.00 | 0.12 | 0.00 | 83 | 1013.7 |
| 20260508005505 | 48 | 139 | 0.0 | 0.0 | 0.00 | 0.12 | 0.00 | 83 | 1013.7 |
| 20260508005008 | 48 | 138 | 0.0 | 0.0 | 0.00 | 0.12 | 0.00 | 84 | 1013.7 |
| 20260508004514 | 48 | 138 | 0.0 | 0.0 | 0.00 | 0.12 | 0.00 | 84 | 1013.7 |
| 20260508004006 | 48 | 138 | 0.0 | 0.0 | 0.00 | 0.12 | 0.00 | 84 | 1013.7 |
| 20260508003506 | 48 | 138 | 0.0 | 1.0 | 0.00 | 0.12 | 0.00 | 84 | 1013.7 |
| 20260508003019 | 48 | 138 | 0.0 | 1.0 | 0.00 | 0.12 | 0.00 | 84 | 1013.7 |
| 20260508002509 | 48 | 138 | 0.0 | 1.0 | 0.00 | 0.12 | 0.00 | 84 | 1013.7 |
| 20260508002010 | 48 | 117 | 0.0 | 1.0 | 0.00 | 0.12 | 0.00 | 84 | 1013.7 |
| 20260508001526 | 48 | 117 | 0.0 | 1.0 | 0.00 | 0.12 | 0.00 | 84 | 1013.7 |
| 20260508001007 | 48 | 96 | 0.0 | 1.0 | 0.00 | 0.12 | 0.00 | 84 | 1013.7 |
| 20260508000510 | 48 | 96 | 0.0 | 1.0 | 0.00 | 0.12 | 0.00 | 84 | 1013.7 |
| 20260508000025 | 48 | 96 | 0.0 | 1.0 | 0.00 | 0.12 | 0.00 | 84 | 1013.7 |
| 20260507235514 | 48 | 96 | 0.0 | 1.0 | 0.00 | 0.12 | 0.00 | 85 | 1013.7 |
| 20260507235013 | 48 | 96 | 0.0 | 1.0 | 0.00 | 0.12 | 0.00 | 84 | 1013.8 |
| 20260507234530 | 48 | 96 | 0.0 | 1.0 | 0.00 | 0.12 | 0.00 | 84 | 1013.8 |
| 20260507234008 | 49 | 96 | 0.0 | 1.0 | 0.00 | 0.12 | 0.00 | 85 | 1013.8 |
| 20260507233506 | 49 | 123 | 0.0 | 1.0 | 0.00 | 0.12 | 0.00 | 85 | 1013.8 |
| 20260507233015 | 49 | 121 | 0.0 | 1.0 | 0.00 | 0.12 | 0.00 | 84 | 1013.8 |
| 20260507232507 | 49 | 122 | 0.0 | 1.0 | 0.00 | 0.12 | 0.00 | 84 | 1013.8 |
| 20260507232013 | 49 | 122 | 0.0 | 1.0 | 0.00 | 0.12 | 0.00 | 84 | 1013.7 |
| 20260507231522 | 49 | 133 | 0.0 | 2.0 | 0.00 | 0.12 | 0.00 | 84 | 1013.7 |
| 20260507231007 | 49 | 99 | 0.0 | 2.0 | 0.00 | 0.12 | 0.00 | 84 | 1013.8 |
| 20260507230507 | 49 | 113 | 0.0 | 1.0 | 0.00 | 0.12 | 0.00 | 83 | 1013.8 |
| 20260507230036 | 50 | 137 | 0.0 | 1.0 | 0.00 | 0.12 | 0.00 | 84 | 1013.8 |
| 20260507225510 | 49 | 118 | 0.0 | 1.0 | 0.00 | 0.12 | 0.00 | 84 | 1013.8 |
| 20260507225008 | 49 | 92 | 0.0 | 1.0 | 0.00 | 0.12 | 0.00 | 84 | 1013.8 |
| 20260507224532 | 49 | 109 | 0.0 | 1.0 | 0.00 | 0.12 | 0.00 | 84 | 1013.8 |
| 20260507224009 | 50 | 84 | 0.0 | 1.0 | 0.00 | 0.12 | 0.00 | 84 | 1013.8 |
| 20260507223509 | 49 | 83 | 0.0 | 1.0 | 0.00 | 0.12 | 0.00 | 85 | 1013.9 |
| 20260507223052 | 49 | 82 | 0.0 | 1.0 | 0.00 | 0.12 | 0.00 | 85 | 1013.8 |
| 20260507222510 | 50 | 107 | 0.0 | 1.0 | 0.00 | 0.12 | 0.00 | 85 | 1013.7 |
| 20260507222007 | 50 | 107 | 0.0 | 2.0 | 0.00 | 0.12 | 0.00 | 85 | 1013.8 |
| 20260507221516 | 50 | 131 | 0.0 | 2.0 | 0.00 | 0.12 | 0.00 | 86 | 1013.7 |
| 20260507221009 | 49 | 77 | 0.0 | 1.0 | 0.00 | 0.12 | 0.00 | 86 | 1013.7 |
| 20260507220505 | 49 | 91 | 0.0 | 1.0 | 0.00 | 0.12 | 0.00 | 87 | 1013.8 |
| 20260507220025 | 49 | 93 | 0.0 | 1.0 | 0.00 | 0.12 | 0.00 | 87 | 1013.8 |
| 20260507215509 | 50 | 107 | 0.0 | 1.0 | 0.00 | 0.12 | 0.12 | 87 | 1013.8 |
| 20260507215006 | 50 | 107 | 0.0 | 1.0 | 0.00 | 0.12 | 0.12 | 87 | 1013.8 |
| 20260507214525 | 50 | 81 | 0.0 | 2.0 | 0.00 | 0.12 | 0.12 | 87 | 1013.9 |
| 20260507214008 | 50 | 84 | 0.0 | 2.0 | 0.00 | 0.12 | 0.12 | 88 | 1013.9 |
| 20260507213506 | 50 | 116 | 0.0 | 2.0 | 0.00 | 0.12 | 0.12 | 88 | 1013.9 |
| 20260507213008 | 49 | 96 | 0.0 | 1.0 | 0.00 | 0.12 | 0.12 | 88 | 1014.0 |
| 20260507212503 | 49 | 97 | 0.0 | 1.0 | 0.00 | 0.12 | 0.12 | 88 | 1014.0 |
| 20260507212010 | 49 | 91 | 0.0 | 2.0 | 0.00 | 0.12 | 0.12 | 88 | 1014.0 |
| 20260507211512 | 49 | 110 | 1.0 | 2.0 | 0.00 | 0.12 | 0.12 | 89 | 1014.1 |
| 20260507211006 | 49 | 100 | 0.0 | 1.0 | 0.00 | 0.12 | 0.12 | 88 | 1014.0 |
| 20260507210512 | 49 | 103 | 0.0 | 1.0 | 0.00 | 0.12 | 0.12 | 88 | 1014.0 |
| 20260507210019 | 49 | 122 | 0.0 | 1.0 | 0.00 | 0.12 | 0.12 | 88 | 1013.9 |
| 20260507205507 | 49 | 85 | 0.0 | 1.0 | 0.00 | 0.12 | 0.12 | 88 | 1013.9 |
| 20260507205008 | 49 | 94 | 0.0 | 1.0 | 0.00 | 0.12 | 0.12 | 88 | 1013.9 |
| 20260507204504 | 49 | 109 | 0.0 | 1.0 | 0.00 | 0.12 | 0.12 | 88 | 1014.0 |
| 20260507204002 | 50 | 93 | 0.0 | 1.0 | 0.00 | 0.12 | 0.12 | 88 | 1014.0 |
| 20260507203503 | 50 | 86 | 0.0 | 1.0 | 0.00 | 0.12 | 0.12 | 88 | 1014.0 |
| 20260507203019 | 50 | 88 | 0.0 | 1.0 | 0.00 | 0.12 | 0.12 | 88 | 1014.0 |
| 20260507202502 | 50 | 94 | 0.0 | 1.0 | 0.00 | 0.12 | 0.12 | 89 | 1013.8 |
| 20260507202006 | 50 | 343 | 0.0 | 0.0 | 0.00 | 0.12 | 0.12 | 89 | 1013.8 |
| 20260507201509 | 50 | 340 | 0.0 | 0.0 | 0.00 | 0.12 | 0.12 | 88 | 1013.6 |
| 20260507201006 | 50 | 341 | 0.0 | 0.0 | 0.00 | 0.12 | 0.12 | 88 | 1013.6 |
| 20260507200503 | 51 | 340 | 0.0 | 0.0 | 0.00 | 0.12 | 0.12 | 86 | 1013.6 |
| 20260507200020 | 51 | 341 | 0.0 | 0.0 | 0.00 | 0.12 | 0.12 | 85 | 1013.6 |
| 20260507195506 | 51 | 340 | 0.0 | 0.0 | 0.00 | 0.12 | 0.12 | 85 | 1013.5 |
| 20260507195008 | 52 | 340 | 0.0 | 0.0 | 0.00 | 0.12 | 0.12 | 85 | 1013.5 |
| 20260507194517 | 52 | 340 | 0.0 | 0.0 | 0.00 | 0.12 | 0.12 | 84 | 1013.4 |
| 20260507194008 | 52 | 340 | 0.0 | 0.0 | 0.00 | 0.12 | 0.12 | 83 | 1013.4 |
| 20260507193508 | 52 | 341 | 0.0 | 0.0 | 0.00 | 0.12 | 0.12 | 82 | 1013.3 |
| 20260507193039 | 52 | 340 | 0.0 | 1.0 | 0.00 | 0.12 | 0.12 | 82 | 1013.3 |
| 20260507192503 | 53 | 340 | 0.0 | 1.0 | 0.00 | 0.12 | 0.12 | 81 | 1013.3 |
| 20260507192003 | 53 | 340 | 0.0 | 0.0 | 0.00 | 0.12 | 0.12 | 81 | 1013.2 |
| 20260507191507 | 53 | 340 | 0.0 | 1.0 | 0.00 | 0.12 | 0.12 | 80 | 1013.3 |
| 20260507191003 | 53 | 340 | 0.0 | 1.0 | 0.00 | 0.12 | 0.12 | 80 | 1013.2 |
| 20260507190503 | 53 | 331 | 0.0 | 1.0 | 0.00 | 0.12 | 0.12 | 80 | 1013.2 |
| 20260507190011 | 54 | 342 | 0.0 | 1.0 | 0.00 | 0.12 | 0.12 | 79 | 1013.2 |
| 20260507185503 | 54 | 358 | 0.0 | 0.0 | 0.00 | 0.12 | 0.12 | 78 | 1013.3 |
| 20260507185003 | 54 | 358 | 0.0 | 1.0 | 0.00 | 0.12 | 0.12 | 76 | 1013.4 |
| 20260507184516 | 54 | 358 | 0.0 | 1.0 | 0.00 | 0.12 | 0.12 | 75 | 1013.4 |
| 20260507184006 | 54 | 358 | 0.0 | 1.0 | 0.00 | 0.12 | 0.12 | 75 | 1013.3 |
| 20260507183509 | 55 | 358 | 0.0 | 2.0 | 0.00 | 0.12 | 0.12 | 75 | 1013.2 |
| 20260507183034 | 55 | 18 | 0.0 | 2.0 | 0.00 | 0.12 | 0.12 | 74 | 1013.2 |
| 20260507182509 | 55 | 21 | 0.0 | 3.0 | 0.00 | 0.13 | 0.12 | 75 | 1013.1 |
| 20260507182009 | 56 | 356 | 1.0 | 3.0 | 0.00 | 0.13 | 0.12 | 74 | 1013.2 |
| 20260507181523 | 57 | 354 | 1.0 | 2.0 | 0.00 | 0.13 | 0.12 | 74 | 1013.1 |
| 20260507181016 | 57 | 350 | 0.0 | 1.0 | 0.00 | 0.13 | 0.12 | 74 | 1013.1 |
| 20260507180507 | 56 | 16 | 0.0 | 1.0 | 0.00 | 0.13 | 0.12 | 76 | 1013.1 |
| 20260507180008 | 55 | 331 | 0.0 | 2.0 | 0.00 | 0.13 | 0.12 | 76 | 1013.1 |
| 20260507175503 | 55 | 328 | 1.0 | 2.0 | 0.00 | 0.13 | 0.12 | 75 | 1013.2 |
| 20260507175004 | 55 | 331 | 1.0 | 2.0 | 0.00 | 0.14 | 0.12 | 76 | 1013.2 |
| 20260507174517 | 55 | 6 | 0.0 | 2.0 | 0.00 | 0.14 | 0.12 | 77 | 1013.2 |
| 20260507174003 | 56 | 41 | 0.0 | 2.0 | 0.00 | 0.18 | 0.12 | 76 | 1013.2 |
| 20260507173506 | 56 | 15 | 0.0 | 2.0 | 0.00 | 0.18 | 0.12 | 75 | 1013.2 |
| 20260507173017 | 56 | 35 | 0.0 | 2.0 | 0.00 | 0.18 | 0.12 | 75 | 1013.2 |
| 20260507172504 | 56 | 360 | 0.0 | 3.0 | 0.00 | 0.18 | 0.12 | 77 | 1013.2 |
| 20260507172005 | 55 | 333 | 0.0 | 3.0 | 0.00 | 0.18 | 0.12 | 77 | 1013.2 |
| 20260507171521 | 55 | 4 | 0.0 | 2.0 | 0.00 | 0.18 | 0.12 | 77 | 1013.2 |
| 20260507171011 | 54 | 345 | 1.0 | 2.0 | 0.00 | 0.19 | 0.12 | 75 | 1013.2 |
| 20260507170510 | 55 | 6 | 0.0 | 2.0 | 0.00 | 0.20 | 0.12 | 75 | 1013.2 |